Home > Weather > Maldonado > Past weeks

Flag for Uruguay Weather for the Past 2 Weeks in Maldonado, Uruguay

Now
82 °F

Passing clouds.


Feels Like: 81 °F
Forecast: 68 / 80 °F
Wind: 9 mph from Northeast

Location: Capitan Corbeta

Current Time: Feb 14, 2016 at 12:43:01 PM

Latest Report: Feb 14, 2016 at 12:00 PM


Visibility: N/A

Pressure: 29.83 "Hg

Humidity: 37%

Dew point: 54 °F

Location of MaldonadoLocation

Historic Weather in Maldonado — Graph

°F

Maldonado Temperature Yesterday

Maximum temperature yesterday: 82 °F (at 5:00 PM)
Minimum temperature yesterday: 72 °F (at 7:00 AM)
Average temperature yesterday: 76 °F

High & Low Weather Summary for the Past Weeks

 TemperatureHumidityPressure
High99 °F (Feb 12, 1:00 PM)94% (Feb 9, 5:00 AM)30.12 "Hg (Feb 9, 5:00 AM)
Low57 °F (Feb 11, 6:00 AM)25% (Feb 12, 1:00 PM)29.65 "Hg (Feb 13, 2:00 AM)
Average74 °F69%29.93 "Hg
* Reported Jan 30 11:00 AM — Feb 14 11:00 AM, Maldonado, Weather by CustomWeather, © 2016

Note: Actual official high and low records may vary slightly from our data, if they occured in-between our weather recording intervals... More about our weather records

Advertising

Maldonado Weather History for the Previous 24 Hours

 ConditionsComfort  
Time TempWeatherWind HumidityBarometerVisibility
11:00 AM
Sun, Feb 14
79 °FPassing clouds.7 mph42%29.83 "HgN/A
10:00 AM75 °FSunny.6 mph54%29.86 "Hg10 mi
9:00 AM72 °FSunny.8 mph65%29.86 "Hg10 mi
8:00 AM72 °FSunny.7 mph69%29.86 "Hg10 mi
7:00 AM68 °FSunny.3 mph83%29.86 "Hg10 mi
6:00 AM66 °FPassing clouds.5 mph83%29.83 "HgN/A
5:00 AM66 °FOvercast.5 mph83%29.80 "HgN/A
4:00 AM70 °FPassing clouds.12 mph88%29.80 "HgN/A
3:00 AM72 °FPassing clouds.12 mph88%29.80 "HgN/A
2:00 AM72 °FPassing clouds.12 mph88%29.80 "HgN/A
1:00 AM72 °FPassing clouds.7 mph88%29.80 "HgN/A
12:00 AM72 °FPassing clouds.3 mph88%29.80 "HgN/A
11:00 PM
Sat, Feb 13
73 °FPartly cloudy.No wind89%29.80 "HgN/A
10:00 PM73 °FPartly cloudy.3 mph89%29.80 "HgN/A
9:00 PM75 °FPassing clouds.5 mph83%29.74 "HgN/A
8:00 PM75 °FLight rain. Partly cloudy.12 mph83%29.74 "HgN/A
7:00 PM77 °FPartly sunny.12 mph79%29.71 "HgN/A
6:00 PM79 °FBroken clouds.16 mph70%29.68 "HgN/A
5:00 PM82 °FBroken clouds.14 mph62%29.68 "HgN/A
4:00 PM77 °FMore clouds than sun.12 mph79%29.68 "HgN/A
3:00 PM81 °FMore clouds than sun.8 mph70%29.68 "HgN/A
1:00 PM81 °FMore clouds than sun.8 mph66%29.68 "HgN/A
12:00 PM77 °FMore clouds than sun.8 mph89%29.68 "HgN/A
Weather by CustomWeather, © 2016

See weather overviewHow to use our weather pages